Terminal Aerodrome Forecast
Issued by NWS

Home | Current Version | Previous Version | Text Only | Print | Product List | Glossary On
Versions: 1 2 3 4 5 6 7 8 9 10 11 12
000
FTUS42 TJSJ 030531
TAFKPK
TAF
TKPK 030531Z 0306/0406 07013KT P6SM VCSH SCT018
     FM031200 07017KT P6SM FEW020 FEW040
     FM032300 06013KT P6SM SCT018
      AMD NOT SKED TIL 031100=

USA.gov is the U.S. government's official web portal to all federal, state and local government web resources and services.